Terminal Aerodrome Forecast
Issued by NWS

Home | Current Version | Previous Version | Text Only | Print | Product List | Glossary On
Versions: 1 2 3 4 5 6 7 8 9 10 11 12 13 14 15 16 17 18 19 20 21 22 23 24 25 26 27 28 29 30 31 32 33 34 35 36 37 38 39
000
FTUS41 KBOX 071739
TAFACK
TAF
KACK 071739Z 0718/0818 16012KT 2SM BR BKN002
     FM072100 19012G22KT 4SM BR BKN025
      TEMPO 0721/0724 1SM BR OVC002
     FM080000 20013KT 1/2SM FG BKN003
     FM080900 22011KT 2SM BR BKN008
     FM081200 21012KT P6SM BKN250=

USA.gov is the U.S. government's official web portal to all federal, state and local government web resources and services.